Asheville, NC

3:44 PM EDT on June 26, 2017 (GMT -0400)
Asheville Regional

Weather History for KAVL - September, 2014

Change the Weather History Date:

Friday, September 12, 2014

  Actual Average Record
Temperature  
Mean Temperature 76 °F 68 °F  
Max Temperature 84 °F 78 °F 89 °F (1998)
Min Temperature 67 °F 57 °F 40 °F (1917)
Degree Days  
Heating Degree Days 0 1  
Month to date heating degree days 0 4  
Since 1 July heating degree days 2 6  
Cooling Degree Days 11 4  
Month to date cooling degree days 112 58  
Year to date cooling degree days 864 815  
Growing Degree Days 25 (Base 50)    
Moisture  
Dew Point 68 °F    
Average Humidity 78    
Maximum Humidity 100    
Minimum Humidity 55    
Precipitation  
Precipitation 0.24 in 0.13 in 2.72 in (1878)
Month to date precipitation 5.11 1.60  
Year to date precipitation 35.89 33.21  
Snow  
Snow 0.00 in 0.00 in 0.00 in ()
Month to date snowfall 0.0 0.0  
Since 1 July snowfall 0.0 0.0  
Since 1 September snowfall 0.0 0.0  
Snow Depth 0.00 in    
Sea Level Pressure  
Sea Level Pressure 30.09 in    
Wind  
Wind Speed 5 mph (North)    
Max Wind Speed 14 mph    
Max Gust Speed 17 mph    
Visibility 8 miles    
Events Fog , Rain , Thunderstorm    
T = Trace of Precipitation, MM = Missing Value Source: NWS Daily Summary

Daily Weather History Graph

Daily Weather History Graph

Search for Another Location

Airport or City:

Trip Planner

Search our weather history database for the weather conditions in past years. The results will help you decide how hot, cold, wet, or windy it might be!

Date:

Astronomy

Sep. 12, 2014 Rise Set
Actual Time 7:10 AM EDT 7:41 PM EDT
Civil Twilight 6:45 AM EDT 8:07 PM EDT
Nautical Twilight 6:14 AM EDT 8:37 PM EDT
Astronomical Twilight 5:44 AM EDT 9:07 PM EDT
Moon 10:11 PM EDT (9/12) 11:03 AM EDT (9/12)
Length of Visible Light 13h 22m
Length of Day
12h 30m
Waning Gibbous, 83% of the Moon is Illuminated
Sep 12
Waning Gibbous
Sep 15
Last Quarter
Sep 24
New
Oct 1
First Quarter
Oct 8
Full

Hourly Weather History & Observations

Time (EDT) Temp. Heat Index Dew Point Humidity Pressure Visibility Wind Dir Wind Speed Gust Speed Precip Events Conditions
12:54 AM 70.0 °F - 66.9 °F 90% 30.04 in 5.0 mi NNE 4.6 mph - 0.03 in Rain Light Rain
1:36 AM 69.1 °F - 66.9 °F 93% 30.12 in 10.0 mi Calm Calm - 0.01 in   Overcast
1:54 AM 69.1 °F - 66.9 °F 93% 30.03 in 10.0 mi Calm Calm - 0.01 in   Overcast
2:11 AM 69.1 °F - 66.9 °F 93% 30.11 in 10.0 mi Calm Calm - N/A   Mostly Cloudy
2:18 AM 69.1 °F - 66.9 °F 93% 30.11 in 10.0 mi West 3.5 mph - N/A   Overcast
2:54 AM 68.0 °F - 66.9 °F 96% 30.02 in 10.0 mi NNW 6.9 mph - N/A   Mostly Cloudy
3:04 AM 68.0 °F - 66.9 °F 96% 30.11 in 7.0 mi North 5.8 mph - N/A   Mostly Cloudy
3:14 AM 68.0 °F - 66.9 °F 96% 30.11 in 1.8 mi NNW 8.1 mph - N/A   Mostly Cloudy
3:29 AM 68.0 °F - 66.9 °F 96% 30.10 in 2.5 mi North 5.8 mph - N/A   Overcast
3:44 AM 68.0 °F - 66.9 °F 96% 30.10 in 1.2 mi North 4.6 mph - N/A   Overcast
3:54 AM 68.0 °F - 66.9 °F 96% 30.02 in 1.8 mi North 4.6 mph - N/A   Overcast
3:59 AM 68.0 °F - 66.9 °F 96% 30.10 in 3.0 mi NNW 4.6 mph - N/A   Overcast
4:15 AM 69.1 °F - 66.9 °F 93% 30.11 in 10.0 mi NNW 5.8 mph - N/A   Overcast
4:54 AM 69.8 °F - 66.2 °F 88% 30.11 in 10.0 mi North 6.9 mph - N/A   Overcast
5:54 AM 68.0 °F - 66.0 °F 93% 30.04 in 9.0 mi North 5.8 mph - N/A   Overcast
6:12 AM 68.0 °F - 66.0 °F 93% 30.12 in 8.0 mi North 8.1 mph - N/A   Overcast
6:38 AM 66.9 °F - 66.0 °F 97% 30.12 in 0.5 mi North 8.1 mph - N/A Fog Fog
6:54 AM 66.9 °F - 66.0 °F 97% 30.05 in 0.5 mi North 4.6 mph - N/A Fog Fog
7:38 AM 68.0 °F - 66.0 °F 93% 30.14 in 0.8 mi North 5.8 mph - N/A   Overcast
7:54 AM 68.0 °F - 66.2 °F 94% 30.14 in 0.8 mi NNW 9.2 mph - N/A   Overcast
8:17 AM 66.9 °F - 66.0 °F 97% 30.14 in 0.8 mi North 8.1 mph - N/A   Overcast
8:54 AM 69.1 °F - 66.0 °F 90% 30.08 in 0.8 mi North 6.9 mph - N/A   Overcast
9:01 AM 69.1 °F - 66.0 °F 90% 30.15 in 10.0 mi North 6.9 mph - N/A   Overcast
9:09 AM 69.1 °F - 66.0 °F 90% 30.15 in 10.0 mi North 5.8 mph - N/A   Overcast
9:42 AM 71.1 °F - 66.0 °F 84% 30.16 in 10.0 mi North 10.4 mph - N/A   Overcast
9:54 AM 71.1 °F - 66.0 °F 84% 30.08 in 10.0 mi North 9.2 mph - N/A   Mostly Cloudy
10:17 AM 73.0 °F - 66.9 °F 81% 30.16 in 10.0 mi North 11.5 mph - N/A   Mostly Cloudy
10:26 AM 73.0 °F - 66.9 °F 81% 30.16 in 10.0 mi North 8.1 mph - N/A   Mostly Cloudy
10:40 AM 73.0 °F - 66.9 °F 81% 30.16 in 10.0 mi North 10.4 mph - N/A   Mostly Cloudy
10:54 AM 73.9 °F - 66.9 °F 79% 30.08 in 10.0 mi NNW 10.4 mph - N/A   Mostly Cloudy
11:54 AM 77.0 °F - 66.9 °F 71% 30.07 in 10.0 mi North 8.1 mph - N/A   Scattered Clouds
12:54 PM 81.0 °F 83.3 °F 66.9 °F 62% 30.04 in 10.0 mi North 3.5 mph - N/A   Partly Cloudy
1:54 PM 82.9 °F 84.6 °F 64.9 °F 54% 30.03 in 10.0 mi WNW 5.8 mph - N/A   Mostly Cloudy
2:54 PM 82.9 °F 85.4 °F 66.9 °F 58% 30.01 in 10.0 mi NNW 8.1 mph - N/A   Mostly Cloudy
3:54 PM 82.9 °F 85.0 °F 66.0 °F 56% 29.99 in 10.0 mi Calm Calm - N/A   Overcast
4:34 PM 80.1 °F 82.9 °F 69.1 °F 69% 30.07 in 10.0 mi SSE 6.9 mph - N/A   Overcast
4:54 PM 79.0 °F - 69.1 °F 72% 30.00 in 10.0 mi Variable 6.9 mph - N/A   Mostly Cloudy
5:15 PM 77.0 °F - 69.1 °F 76% 30.08 in 10.0 mi North - - 0.00 in Rain Light Rain
5:54 PM 75.0 °F - 68.0 °F 79% 30.00 in 10.0 mi SE 3.5 mph - 0.00 in Rain Light Rain
6:08 PM 73.9 °F - 70.0 °F 87% 30.08 in 10.0 mi Calm Calm - 0.01 in Rain Light Rain
6:54 PM 73.0 °F - 70.0 °F 90% 30.01 in 10.0 mi Calm Calm - 0.01 in   Overcast
7:18 PM 73.0 °F - 69.1 °F 87% 30.09 in 10.0 mi NE 3.5 mph - N/A Thunderstorm Mostly Cloudy
7:33 PM 73.0 °F - 69.1 °F 87% 30.10 in 10.0 mi Calm Calm - N/A   Mostly Cloudy
7:54 PM 73.0 °F - 69.1 °F 87% 30.03 in 10.0 mi Calm Calm - 0.00 in Rain Light Rain
8:01 PM 73.0 °F - 70.0 °F 90% 30.10 in 10.0 mi Calm Calm - 0.00 in Rain Light Rain
8:11 PM 73.0 °F - 70.0 °F 90% 30.11 in 10.0 mi Calm Calm - 0.00 in Rain , Thunderstorm Light Rain
8:26 PM 73.0 °F - 70.0 °F 90% 30.11 in 7.0 mi Calm Calm - 0.01 in Rain Rain
8:31 PM 73.0 °F - 70.0 °F 90% 30.11 in 2.0 mi Calm Calm - 0.03 in Rain , Thunderstorm Heavy Rain
8:38 PM 72.0 °F - 70.0 °F 93% 30.11 in 1.5 mi Calm Calm - 0.15 in Rain , Thunderstorm Heavy Rain
8:42 PM 72.0 °F - 70.0 °F 93% 30.12 in 3.0 mi Calm Calm - 0.15 in Rain , Thunderstorm Rain
8:54 PM 72.0 °F - 70.0 °F 93% 30.05 in 10.0 mi Variable 3.5 mph - 0.16 in Rain , Thunderstorm Light Rain
9:01 PM 72.0 °F - 70.0 °F 93% 30.13 in 5.0 mi Calm Calm - 0.02 in Rain , Thunderstorm Rain
9:47 PM 71.1 °F - 69.1 °F 93% 30.13 in 10.0 mi North 8.1 mph - 0.06 in Rain Light Rain
9:54 PM 71.1 °F - 69.1 °F 93% 30.06 in 10.0 mi North 8.1 mph - 0.06 in Rain Light Rain
10:54 PM 71.1 °F - 69.1 °F 93% 30.05 in 10.0 mi Calm Calm - 0.01 in   Overcast
11:06 PM 71.1 °F - 69.1 °F 93% 30.13 in 10.0 mi Calm Calm - N/A   Overcast
11:18 PM 71.1 °F - 69.1 °F 93% 30.13 in 10.0 mi Calm Calm - N/A   Overcast
11:54 PM 71.1 °F - 69.1 °F 93% 30.06 in 10.0 mi Calm Calm - N/A   Overcast